Flag for Germany Weather past 2 weeks in Freital, Saxony, Germany

Now
35 °F

Light rain. Low clouds.


Feels Like: 31 °F
Forecast: 33 / 39 °F
Wind: 5 mph from Southwest

Location: Dresden-Klotzsche

Current Time: Jan 28, 2015 at 10:17:21 AM

Latest Report: Jan 28, 2015 at 9:00 AM


Visibility: 14 mi

Pressure: 30.01 "Hg

Humidity: 92%

Dew point: 33 °F

Location of FreitalLocation

Historic Weather in Freital — Graph

°F

Freital temperature yesterday

Maximum temperature yesterday: 37 °F (at 1:00 PM)
Minimum temperature yesterday: 33 °F (at 1:00 AM)
Average temperature yesterday: 35 °F

Past Weeks' High & Low Weather Summary

 TemperatureHumidityPressure
High55 °F (Jan 13, 1:00 PM)100% (Jan 22, 7:00 PM)30.34 "Hg (Jan 22, 7:00 PM)
Low29 °F (Jan 24, 12:00 PM)40% (Jan 13, 8:00 PM)29.70 "Hg (Jan 15, 11:00 PM)
Average36 °F86%30.00 "Hg
* Reported Jan 13 9:00 AM — Jan 28 9:00 AM, Freital, Weather by CustomWeather, © 2014

Note: Actual official high and low records may vary slightly from our data, if they occured in-between our weather recording intervals... More about our weather records

Advertising

Freital weather history for previous 24 hours

 ConditionsComfort  
Time TempWeatherWind HumidityBarometerVisibility
9:00 AM
Jan 28
35 °FLight rain. Low clouds.5 mph92%30.01 "Hg14 mi
8:00 AM35 °FOvercast.3 mph90%30.03 "Hg16 mi
7:00 AM35 °FOvercast.3 mph87%30.03 "Hg16 mi
6:00 AM34 °FOvercast.5 mph89%30.04 "Hg16 mi
5:00 AM35 °FOvercast.6 mph90%30.06 "Hg16 mi
3:00 AM35 °FOvercast.5 mph92%30.08 "Hg16 mi
2:00 AM35 °FLow clouds.5 mph94%30.07 "Hg16 mi
1:00 AM35 °FLow clouds.6 mph94%30.07 "Hg12 mi
12:00 AM35 °FOvercast.5 mph95%30.07 "Hg11 mi
11:00 PM
Jan 27
35 °FOvercast.6 mph95%30.07 "Hg11 mi
9:00 PM36 °FLight rain. Low clouds.6 mph95%30.06 "Hg7 mi
8:00 PM35 °FOvercast.3 mph98%30.06 "Hg7 mi
7:00 PM34 °FLight rain. Low clouds.5 mph98%30.05 "Hg6 mi
6:00 PM35 °FLow clouds.6 mph95%30.03 "Hg5 mi
5:00 PM36 °FLight rain. Overcast.6 mph95%30.01 "Hg7 mi
3:00 PM36 °FLight rain. Overcast.7 mph91%29.99 "Hg12 mi
2:00 PM36 °FLight rain. Low clouds.7 mph91%29.98 "Hg16 mi
1:00 PM37 °FOvercast.7 mph91%29.99 "Hg12 mi
12:00 PM35 °FLight rain. Overcast.7 mph95%29.98 "Hg6 mi
11:00 AM35 °FLight rain. Low clouds.8 mph97%29.98 "Hg2 mi
Weather by CustomWeather, © 2014

See weather overviewHow to use our weather pages